Weather History for Show Low, AZ

Change the Weather History Date:

Monday, August 26, 2013

  Actual Average Record
Temperature  
Mean Temperature 68 °F -  
Max Temperature 78 °F 79 °F 90 °F (1981)
Min Temperature 57 °F 60 °F 43 °F (1975)
Cooling Degree Days 2    
Growing Degree Days 18 (Base 50)    
Moisture  
Dew Point 56 °F    
Average Humidity 75    
Maximum Humidity 100    
Minimum Humidity 39    
Precipitation  
Precipitation 0.00 in - - ()
Sea Level Pressure  
Sea Level Pressure 30.30 in    
Wind  
Wind Speed 4 mph (NE)    
Max Wind Speed 17 mph    
Max Gust Speed 23 mph    
Visibility 7 miles    
Events Fog , Thunderstorm    
Averages and records for this station are not official NWS values.
T = Trace of Precipitation, MM = Missing Value Source: NWS Daily Summary

Daily Weather History Graph

Daily Weather History Graph

Search for Another Location

Airport:

Trip Planner

Search our weather history database for the weather conditions in past years. The results will help you decide how hot, cold, wet, or windy it might be!

Date:

Astronomy

Aug. 26, 2013 Rise Set
Actual Time 5:49 AM MST 6:53 PM MST
Civil Twilight 5:23 AM MST 7:19 PM MST
Nautical Twilight 4:52 AM MST 7:49 PM MST
Astronomical Twilight 4:20 AM MST 8:21 PM MST
Moon 10:25 PM MST (8/26) 11:36 AM MST (8/26)
Length of Visible Light 13h 55m
Length of Day
13h 04m
Waning Gibbous, 65% of the Moon is Illuminated
Aug 26
Waning Gibbous
Aug 28
Last Quarter
Sep 5
New
Sep 12
First Quarter
Sep 19
Full

Hourly Weather History & Observations

Time (MST) Temp. Dew Point Humidity Pressure Visibility Wind Dir Wind Speed Gust Speed Precip Events Conditions
12:15 AM 57.2 °F 57.2 °F 100% 30.33 in 10.0 mi NNE 3.5 mph - N/A   Overcast
12:35 AM 57.2 °F 57.2 °F 100% 30.33 in 10.0 mi Calm Calm - N/A   Overcast
12:55 AM 57.2 °F 57.2 °F 100% 30.33 in 10.0 mi NNW 3.5 mph - N/A   Overcast
1:15 AM 57.2 °F 57.2 °F 100% 30.32 in 8.0 mi North 5.8 mph - N/A   Overcast
1:35 AM 57.2 °F 57.2 °F 100% 30.32 in 7.0 mi North 5.8 mph - N/A   Overcast
1:55 AM 57.2 °F 57.2 °F 100% 30.32 in 0.5 mi North 3.5 mph - N/A Fog Fog
2:15 AM 57.2 °F 57.2 °F 100% 30.32 in 0.2 mi NNE 3.5 mph - N/A Fog Fog
2:35 AM 57.2 °F 57.2 °F 100% 30.32 in 0.5 mi NNE 5.8 mph - N/A Fog Fog
2:55 AM 57.2 °F 57.2 °F 100% 30.32 in 0.2 mi North 4.6 mph - N/A Fog Fog
3:15 AM 57.2 °F 57.2 °F 100% 30.32 in 0.2 mi NNW 3.5 mph - N/A Fog Fog
3:35 AM 57.2 °F 57.2 °F 100% 30.32 in 0.2 mi NNW 3.5 mph - N/A Fog Fog
3:55 AM 57.2 °F 57.2 °F 100% 30.32 in 0.5 mi Calm Calm - N/A Fog Fog
4:15 AM 57.2 °F 57.2 °F 100% 30.32 in 0.2 mi Calm Calm - N/A Fog Fog
4:35 AM 57.2 °F 57.2 °F 100% 30.32 in 0.2 mi Calm Calm - N/A Fog Fog
4:55 AM 57.2 °F 57.2 °F 100% 30.32 in 0.2 mi Calm Calm - N/A Fog Fog
5:15 AM 57.2 °F 57.2 °F 100% 30.32 in 0.2 mi North 3.5 mph - N/A Fog Fog
5:35 AM 57.2 °F 57.2 °F 100% 30.32 in 0.2 mi North 3.5 mph - N/A Fog Fog
5:55 AM 57.2 °F 57.2 °F 100% 30.32 in 0.2 mi Calm Calm - N/A Fog Fog
6:15 AM 57.2 °F 57.2 °F 100% 30.32 in 0.2 mi Calm Calm - N/A Fog Fog
6:35 AM 57.2 °F 57.2 °F 100% 30.33 in 0.2 mi Calm Calm - N/A Fog Fog
6:55 AM 57.2 °F 57.2 °F 100% 30.33 in 0.5 mi Calm Calm - N/A Fog Fog
7:15 AM 57.2 °F 57.2 °F 100% 30.33 in 0.2 mi NNE 3.5 mph - N/A Fog Fog
7:35 AM 57.2 °F 57.2 °F 100% 30.33 in 1.5 mi Calm Calm - N/A   Overcast
7:55 AM 59.0 °F 57.2 °F 94% 30.34 in 1.8 mi ENE 3.5 mph - N/A   Overcast
8:15 AM 57.2 °F 57.2 °F 100% 30.33 in 4.0 mi North 3.5 mph - N/A   Overcast
8:35 AM 59.0 °F 57.2 °F 94% 30.34 in 5.0 mi Calm Calm - N/A   Overcast
8:55 AM 59.0 °F 59.0 °F 100% 30.34 in 9.0 mi Calm Calm - N/A   Mostly Cloudy
9:15 AM 62.6 °F 60.8 °F 94% 30.34 in 9.0 mi Calm Calm - N/A   Partly Cloudy
9:35 AM 64.4 °F 59.0 °F 83% 30.34 in 10.0 mi Calm Calm - N/A   Clear
9:55 AM 66.2 °F 59.0 °F 78% 30.34 in 10.0 mi NE 4.6 mph - N/A   Clear
10:15 AM 68.0 °F 59.0 °F 73% 30.34 in 10.0 mi Calm Calm - N/A   Clear
10:35 AM 68.0 °F 59.0 °F 73% 30.34 in 10.0 mi NNE 4.6 mph - N/A   Partly Cloudy
10:55 AM 71.6 °F 59.0 °F 64% 30.34 in 10.0 mi WSW 4.6 mph - N/A   Scattered Clouds
11:15 AM 73.4 °F 53.6 °F 50% 30.33 in 10.0 mi SSW 12.7 mph 17.3 mph N/A   Mostly Cloudy
11:35 AM 73.4 °F 51.8 °F 47% 30.33 in 10.0 mi South 15.0 mph - N/A   Scattered Clouds
11:55 AM 75.2 °F 53.6 °F 47% 30.32 in 10.0 mi South 10.4 mph 18.4 mph N/A   Scattered Clouds
12:15 PM 75.2 °F 53.6 °F 47% 30.31 in 10.0 mi South 12.7 mph - N/A   Scattered Clouds
12:35 PM 75.2 °F 53.6 °F 47% 30.31 in 10.0 mi South 13.8 mph 19.6 mph N/A   Scattered Clouds
12:55 PM 77.0 °F 53.6 °F 44% 30.30 in 10.0 mi South 15.0 mph 18.4 mph N/A   Partly Cloudy
1:15 PM 77.0 °F 53.6 °F 44% 30.29 in 10.0 mi South 17.3 mph 21.9 mph N/A   Clear
1:35 PM 77.0 °F 53.6 °F 44% 30.29 in 10.0 mi South 15.0 mph 21.9 mph N/A   Partly Cloudy
1:55 PM 77.0 °F 51.8 °F 41% 30.28 in 10.0 mi SSW 11.5 mph 20.7 mph N/A   Scattered Clouds
2:15 PM 78.8 °F 51.8 °F 39% 30.27 in 10.0 mi South 12.7 mph 20.7 mph N/A   Partly Cloudy
2:35 PM 78.8 °F 51.8 °F 39% 30.26 in 10.0 mi SSE 11.5 mph 18.4 mph N/A   Clear
2:55 PM 78.8 °F 51.8 °F 39% 30.26 in 10.0 mi South 11.5 mph 19.6 mph N/A   Clear
3:15 PM 78.8 °F 53.6 °F 42% 30.25 in 10.0 mi South 15.0 mph 23.0 mph N/A Thunderstorm Partly Cloudy
3:35 PM 77.0 °F 51.8 °F 41% 30.25 in 10.0 mi South 11.5 mph - N/A   Partly Cloudy
3:55 PM 78.8 °F 51.8 °F 39% 30.24 in 10.0 mi South 11.5 mph - N/A   Partly Cloudy
4:15 PM 77.0 °F 51.8 °F 41% 30.24 in 10.0 mi South 16.1 mph 23.0 mph N/A   Partly Cloudy
4:35 PM 73.4 °F 53.6 °F 50% 30.24 in 10.0 mi SW 10.4 mph - N/A   Partly Cloudy
4:55 PM 73.4 °F 53.6 °F 50% 30.23 in 10.0 mi SW 8.1 mph - N/A   Clear
5:15 PM 73.4 °F 53.6 °F 50% 30.24 in 10.0 mi WSW 4.6 mph - N/A   Partly Cloudy
5:35 PM 73.4 °F 55.4 °F 53% 30.23 in 10.0 mi WNW 6.9 mph - N/A   Mostly Cloudy
5:55 PM 73.4 °F 55.4 °F 53% 30.24 in 10.0 mi NNE 10.4 mph - N/A   Mostly Cloudy
6:15 PM 71.6 °F 55.4 °F 57% 30.25 in 10.0 mi NE 4.6 mph - N/A   Overcast
6:35 PM 68.0 °F 55.4 °F 64% 30.25 in 10.0 mi ENE 3.5 mph - N/A   Scattered Clouds
6:55 PM 68.0 °F 55.4 °F 64% 30.26 in 10.0 mi NE 3.5 mph - N/A   Mostly Cloudy
7:15 PM 66.2 °F 57.2 °F 73% 30.26 in 10.0 mi ENE 4.6 mph - N/A   Mostly Cloudy
7:35 PM 66.2 °F 57.2 °F 73% 30.26 in 10.0 mi Calm Calm - N/A   Mostly Cloudy
7:55 PM 66.2 °F 55.4 °F 68% 30.27 in 10.0 mi ENE 3.5 mph - N/A   Scattered Clouds
8:15 PM 68.0 °F 55.4 °F 64% 30.27 in 10.0 mi NE 3.5 mph - N/A   Mostly Cloudy
8:35 PM 66.2 °F 57.2 °F 73% 30.27 in 10.0 mi Calm Calm - N/A   Mostly Cloudy
8:55 PM 66.2 °F 57.2 °F 73% 30.28 in 10.0 mi Calm Calm - N/A   Mostly Cloudy
9:15 PM 66.2 °F 57.2 °F 73% 30.28 in 10.0 mi Calm Calm - N/A   Mostly Cloudy
9:35 PM 66.2 °F 57.2 °F 73% 30.28 in 10.0 mi Calm Calm - N/A   Overcast
9:55 PM 66.2 °F 57.2 °F 73% 30.28 in 10.0 mi Calm Calm - N/A   Overcast
10:15 PM 66.2 °F 57.2 °F 73% 30.29 in 10.0 mi Calm Calm - N/A   Overcast
10:35 PM 66.2 °F 59.0 °F 78% 30.29 in 10.0 mi Calm Calm - N/A   Overcast
10:55 PM 66.2 °F 57.2 °F 73% 30.28 in 10.0 mi Calm Calm - N/A   Mostly Cloudy
11:15 PM 64.4 °F 57.2 °F 77% 30.28 in 10.0 mi Calm Calm - N/A   Scattered Clouds
11:35 PM 64.4 °F 55.4 °F 73% 30.27 in 10.0 mi Calm Calm - N/A   Clear
11:55 PM 62.6 °F 55.4 °F 77% 30.28 in 10.0 mi Calm Calm - N/A   Clear